Home   Weather   Bandar Seri Begawan   Past weeks

Flag for Brunei Past Weather in Bandar Seri Begawan, Brunei — Yesterday and Last 2 Weeks

Now
84 °F

Passing clouds.


Feels Like: 92 °F
Forecast: 80 / 92 °F
Wind: 1 mph from Southeast

Location: Brunei Airport

Current Time: Sep 27, 2016 at 10:03:01 PM

Latest Report: Sep 27, 2016 at 9:30 PM


Visibility: N/A

Pressure: 29.83 "Hg

Humidity: 74%

Dew Point: 75 °F

Location of Bandar Seri BegawanLocation

Past Weather in Bandar Seri Begawan — Graph

°F

Bandar Seri Begawan Temperature Yesterday

Maximum temperature yesterday: 91 °F (at 12:00 PM)
Minimum temperature yesterday: 77 °F (at 6:00 AM)
Average temperature yesterday: 83 °F

High & Low Weather Summary for the Past Weeks

 TemperatureHumidityPressure
High93 °F (Sep 18, 1:30 PM)100% (Sep 16, 4:30 AM)29.89 "Hg (Sep 16, 4:30 AM)
Low75 °F (Sep 20, 11:30 PM)49% (Sep 18, 1:00 PM)29.71 "Hg (Sep 24, 3:00 PM)
Average83 °F80%29.80 "Hg
* Reported Sep 14 8:00 AM — Sep 27 9:00 PM, Bandar Seri Begawan, Weather by CustomWeather, © 2016

Note: Actual official high and low records may vary slightly from our data, if they occured in-between our weather recording intervals... More about our weather records

Advertising

Bandar Seri Begawan Weather History for the Previous 24 Hours

Scroll right to see more
 ConditionsComfort  
Time TempWeatherWind HumidityBarometerVisibility
9:00 PM
Tue, Sep 27
84 °FPassing clouds.1 mph74%29.83 "HgN/A
8:30 PM84 °FPassing clouds.1 mph74%29.80 "HgN/A
8:00 PM84 °FPassing clouds.1 mph74%29.80 "HgN/A
7:30 PM84 °FPassing clouds.1 mph74%29.80 "HgN/A
7:00 PM84 °FPassing clouds.2 mph74%29.77 "HgN/A
6:30 PM86 °FPassing clouds.3 mph66%29.77 "HgN/A
6:00 PM86 °FPartly sunny.8 mph66%29.74 "HgN/A
5:30 PM86 °FPartly sunny.8 mph70%29.74 "HgN/A
5:00 PM86 °FPartly sunny.8 mph70%29.71 "HgN/A
4:30 PM88 °FPartly sunny.8 mph66%29.71 "HgN/A
4:00 PM88 °FPartly sunny.7 mph66%29.71 "HgN/A
3:30 PM88 °FPartly sunny.7 mph70%29.71 "HgN/A
3:00 PM90 °FBroken clouds.8 mph63%29.71 "HgN/A
2:30 PM91 °FBroken clouds.9 mph59%29.71 "HgN/A
2:00 PM90 °FBroken clouds.10 mph59%29.74 "HgN/A
1:30 PM91 °FBroken clouds.13 mph56%29.74 "HgN/A
1:00 PM91 °FBroken clouds.10 mph59%29.77 "HgN/A
12:30 PM90 °FBroken clouds.12 mph59%29.80 "HgN/A
12:00 PM90 °FBroken clouds.12 mph59%29.80 "HgN/A
11:30 AM88 °FBroken clouds.15 mph66%29.83 "HgN/A
11:00 AM86 °FPartly sunny.8 mph70%29.83 "HgN/A
10:30 AM84 °FBroken clouds.13 mph74%29.86 "HgN/A
10:00 AM84 °FPartly sunny.10 mph74%29.86 "HgN/A
9:30 AM84 °FBroken clouds.13 mph74%29.89 "HgN/A
9:00 AM82 °FBroken clouds.15 mph79%29.86 "HgN/A
8:30 AM82 °FBroken clouds.13 mph79%29.86 "HgN/A
8:00 AM81 °FBroken clouds.14 mph84%29.86 "HgN/A
7:30 AM79 °FBroken clouds.6 mph89%29.86 "HgN/A
7:00 AM77 °FBroken clouds.3 mph94%29.83 "HgN/A
6:30 AM77 °FBroken clouds.6 mph94%29.83 "HgN/A
6:00 AM77 °FPartly cloudy.2 mph94%29.80 "HgN/A
5:30 AM77 °FPartly cloudy.5 mph94%29.77 "HgN/A
5:00 AM77 °FPartly cloudy.5 mph94%29.77 "HgN/A
4:30 AM77 °FPassing clouds.5 mph94%29.77 "HgN/A
4:00 AM77 °FPassing clouds.3 mph94%29.77 "HgN/A
3:30 AM77 °FPassing clouds.6 mph94%29.77 "HgN/A
3:00 AM77 °FPassing clouds.2 mph100%29.80 "HgN/A
2:30 AM77 °FPassing clouds.3 mph100%29.80 "HgN/A
2:00 AM77 °FPassing clouds.3 mph100%29.80 "HgN/A
1:30 AM77 °FPassing clouds.3 mph100%29.80 "HgN/A
1:00 AM77 °FPassing clouds.3 mph100%29.80 "HgN/A
12:30 AM79 °FPassing clouds.6 mph94%29.83 "HgN/A
12:00 AM79 °FPassing clouds.7 mph94%29.83 "HgN/A
11:30 PM
Mon, Sep 26
79 °FPassing clouds.5 mph94%29.83 "HgN/A
10:00 PM79 °FPassing clouds.3 mph94%29.86 "HgN/A
Weather by CustomWeather, © 2016

See weather overviewHow to use our weather pages